Location: Marcé
(47.5801°N, 0.3280°W)
Time: 06:38:50
(UTC+01:00)

ISS - Visible Passes

Search period start: 10 December 2023 00:00
Search period end: 20 December 2023 00:00
Orbit: 415 x 417 km, 51.6° (Epoch: 09 December)

Date Brightness Start Highest point End Pass type
(mag) Time Alt. Az. Time Alt. Az. Time Alt. Az.
14 Dec 0.1 07:46:18 10° SE 07:47:01 11° SE 07:47:43 10° ESE visible
16 Dec -1.2 07:43:02 10° SSW 07:45:47 24° SE 07:48:34 10° E visible
17 Dec -0.7 06:55:07 10° S 06:57:11 16° SE 06:59:16 10° E visible
18 Dec -3.0 07:41:25 10° SW 07:44:41 53° SSE 07:47:58 10° ENE visible
19 Dec -2.2 06:53:10 12° SSW 06:55:56 34° SE 06:59:00 10° ENE visible
